Regional Weather Roundup
Issued by NWS

Home | Current Version | Previous Version | Text Only | Print | Product List | Glossary On
Versions: 1 2 3 4 5 6 7 8 9 10 11 12 13 14 15 16 17 18 19 20 21 22 23 24 25 26 27 28 29 30 31 32 33 34 35 36 37 38 39 40 41 42 43 44 45 46 47 48 49 50
000
ASUS45 KBOU 261307
RWRCO

WEATHER ROUNDUP FOR COLORADO
NATIONAL WEATHER SERVICE DENVER/BOULDER CO
700 AM MDT TUE SEP 26 2017

NOTE: "FAIR" INDICATES FEW OR NO CLOUDS BELOW 12000 FEET WITH NO
SIGNIFICANT WEATHER AND/OR OBSTRUCTIONS TO VISIBILITY.

COZ001>005-013-030-031-261400-
...NORTHWEST COLORADO...

CITY           SKY/WX    TMP DP  RH WIND       PRES   REMARKS
CRAIG          FAIR      22  18  85 CALM      30.21R
HAYDEN         FAIR      31  26  82 E5        30.22R WCI  26
MEEKER         FAIR      25  23  92 CALM      30.19R
RABBIT EARS PA FAIR      27  21  80 S5        30.26R WCI  21
STEAMBOAT SPGS FAIR      26  24  92 CALM      30.21R
WALDEN         FAIR      19  16  86 SE8       30.25R WCI   9
$$

COZ006>008-011-261400-
...WEST CENTRAL VALLEYS...

CITY           SKY/WX    TMP DP  RH WIND       PRES   REMARKS
GRAND JUNCTION FAIR      43  30  60 E13       30.11R
MONTROSE       FAIR      33  29  85 SE7       30.17R WCI  27
EAGLE          FAIR      28  24  85 CALM      30.25R
RIFLE          FAIR      34  30  85 S3        30.17R
DELTA          FAIR      38  31  76 E7        30.16R
NUCLA          FAIR      37  27  65 SE12      30.16R
$$

COZ017>023-064>068-261400-
...SOUTHWEST COLORADO...

CITY           SKY/WX    TMP DP  RH WIND       PRES   REMARKS
DURANGO        FAIR      32  22  66 N3        30.13R
CORTEZ         FAIR      29  26  89 NE6       30.11R WCI  23
PAGOSA SPRINGS FAIR      32  21  63 CALM      30.18R
TELLURIDE      FAIR      33  11  39 E3        30.22R
WOLF CREEK PAS FAIR      30  -4  22 S8        30.37R WCI  23
$$

COZ009-010-012-014-032>034-037-058>063-261400-
...CENTRAL COLORADO...

CITY           SKY/WX    TMP DP  RH WIND       PRES   REMARKS
ASPEN          FAIR      24  20  84 CALM      30.20R
BUENA VISTA    CLOUDY    41  30  65 CALM      30.24R
COPPER MTN     FAIR      34   9  35 MISG      30.31R
BERTHOUD PASS  FAIR      25  16  68 S8        30.32R WCI  16
COTTONWOOD PAS CLOUDY    37  32  81 CALM      30.28R
GUNNISON       FAIR      21  14  74 CALM      30.25R
KREMMLING      FAIR      27  21  80 CALM      30.26R
LEADVILLE      FAIR      27  22  81 CALM      30.26R
MONARCH PASS   FAIR      30   3  31 S10       30.42R WCI  21
SALIDA         MOCLDY    40  33  75 SW5       30.30R
SUNLIGHT       FAIR      27  21  80 E5        30.30R WCI  21
WILKERSON PASS MOCLDY   N/A N/A N/A SW5       30.33S
$$

COZ069>075-261400-
...SAN LUIS VALLEY/SANGRE DE CRISTO MOUNTAINS...

CITY           SKY/WX    TMP DP  RH WIND       PRES   REMARKS
ALAMOSA        FAIR      27  24  89 S3        30.21R
DEL NORTE      FAIR      30  16  54 W12       30.23R WCI  21
LA VETA PASS   FOG       32  32 100 MISG      30.38S VSB 1/2
SAGUACHE       FAIR      30  19  64 NW12      30.22R WCI  21
$$

COZ035-036-038>040-261400-
...NORTHERN COLORADO FRONT RANGE...

CITY           SKY/WX    TMP DP  RH WIND       PRES   REMARKS
DENVER INTL AP CLOUDY    46  43  89 CALM      30.19R
DMNS CITY PARK   N/A     46  44  92 NE2G10    30.20R
AURORA         CLOUDY    45  45 100 NW5       30.20R
FRONT RANGE AP CLOUDY    46  45  93 NW5       30.20R
ERIE MUNI ARPT CLOUDY    45  43  95 CALM      30.25
BOULDER MUN AP MOCLDY    45  45 100 CALM      30.19R
CENTENNIAL     CLOUDY    45  42  89 NW5       30.20R
BROOMFIELD     CLOUDY    45  43  93 CALM      30.21R FOG
FORT COLLINS   FAIR      43  41  93 CALM      30.19R
LONGMONT       CLOUDY    47  45  90 CALM      30.21R
$$

COZ041-046-047-076>085-087-088-261400-
...PIKES PEAK/PALMER DIVIDE AND SOUTHERN FOOTHILLS...

CITY           SKY/WX    TMP DP  RH WIND       PRES   REMARKS
COLO. SPRINGS  CLOUDY    45  44  97 SE3       30.22R FOG
A. F. ACADEMY  CLOUDY    43  43 100 SE7       30.21R
SCHRIEVER AFB  CLOUDY    43  42  97 MISG      30.22R
CHEYENNE MTN   LGT RAIN  42  42  99 SE6       30.17R
ELLICOTT       MOCLDY   N/A N/A N/A SE5       30.21R
FALCON         FOG       42  42  99 S3        30.23R VSB 1/4
FORT CARSON    NOT AVBL
LIMON            N/A    N/A N/A N/A MISG      30.20R
MONUMENT HILL  CLOUDY    39  37  93 CALM      30.24R FOG
CANON CITY     CLOUDY    50  48  93 E6        30.19R
WALSENBURG     CLOUDY    46  46 100 SE5       30.20R
TRINIDAD       FOG       45  45 100 E7        30.20R VSB 3/4
$$

COZ042>045-048>051-090-091-261400-
...NORTHEAST COLORADO...

CITY           SKY/WX    TMP DP  RH WIND       PRES   REMARKS
GREELEY ARPT   FAIR      39  39 100 CALM      30.20R
AKRON          FAIR      39  38  96 SW7       30.18R
BURLINGTON     CLOUDY    45  44  97 NW5       30.19S FOG
WRAY           MOCLDY   N/A N/A N/A W3        30.19R
YUMA           FOG       37  37 100 CALM      30.19R VSB 1/4
STERLING       FAIR      34  34 100 CALM      30.18R
HOLYOKE        FAIR      43  41  93 SW3       30.19R
FORT MORGAN    SNOW      40  39  95 W8        30.20R VSB<1/4
$$

COZ086-089-092>099-261400-
...SOUTHEAST COLORADO...

CITY           SKY/WX    TMP DP  RH WIND       PRES   REMARKS
PUEBLO         LGT RAIN  49  47  93 E7        30.19R FOG
LA JUNTA       CLOUDY    50  47  89 E5        30.19R
LAMAR          CLOUDY    48  46  93 CALM      30.17R
SPRINGFIELD      N/A     46  46 100 N6        30.18R
$$



USA.gov is the U.S. government's official web portal to all federal, state and local government web resources and services.